Olbia, Italy

12:28 AM CET on January 20, 2018 (GMT +0100)
Costa Smeralda

Weather History for LIEO - April, 2013

Change the Weather History Date:

Thursday, April 11, 2013

  Actual Average Record
Temperature  
Mean Temperature 60 °F -  
Max Temperature 71 °F 67 °F 77 °F (2017)
Min Temperature 48 °F 48 °F 37 °F (1997)
Degree Days  
Heating Degree Days 6    
Growing Degree Days 10 (Base 50)    
Moisture  
Dew Point 50 °F    
Average Humidity 73    
Maximum Humidity 94    
Minimum Humidity 41    
Precipitation  
Precipitation 0.00 in 0.06 in - ()
Sea Level Pressure  
Sea Level Pressure 30.00 in    
Wind  
Wind Speed 7 mph ()    
Max Wind Speed 18 mph    
Max Gust Speed -    
Averages and records for this station are not official NWS values.
T = Trace of Precipitation, MM = Missing Value Source: Averaged Metar Reports

Daily Weather History Graph

Daily Weather History Graph

Search for Another Location

Airport or City:

Trip Planner

Search our weather history database for the weather conditions in past years. The results will help you decide how hot, cold, wet, or windy it might be!

Date:

Astronomy

Apr. 11, 2013 Rise Set
Actual Time 6:49 AM CEST 7:57 PM CEST
Civil Twilight 6:21 AM CEST 8:25 PM CEST
Nautical Twilight 5:47 AM CEST 8:59 PM CEST
Astronomical Twilight 5:12 AM CEST 9:34 PM CEST
Moon 7:10 AM CEST (4/11) 9:16 PM CEST (4/11)
Length of Visible Light 14h 04m
Length of Day
13h 08m
New Moon, 1% of the Moon is Illuminated
Apr 11
New Moon
Apr 18
First Quarter
Apr 25
Full
May 2
Last Quarter
May 10
New

Hourly Weather History & Observations

Time (CEST) Temp. Dew Point Humidity Pressure Visibility Wind Dir Wind Speed Gust Speed Precip Events Conditions
12:20 AM 48.2 °F 42.8 °F 82% 30.04 in - Variable 2.3 mph - N/A   Clear
12:50 AM 53.6 °F 44.6 °F 72% 30.04 in - SW 10.4 mph - N/A   Clear
1:20 AM 53.6 °F 44.6 °F 72% 30.04 in - SW 11.5 mph - N/A   Clear
1:50 AM 53.6 °F 42.8 °F 67% 30.04 in - SW 9.2 mph - N/A   Clear
2:20 AM 53.6 °F 42.8 °F 67% 30.04 in - WSW 11.5 mph - N/A   Clear
2:50 AM 53.6 °F 44.6 °F 72% 30.04 in - WSW 11.5 mph - N/A   Clear
3:20 AM 51.8 °F 44.6 °F 76% 30.04 in - WSW 5.8 mph - N/A   Clear
3:50 AM 51.8 °F 46.4 °F 82% 30.01 in - Variable 2.3 mph - N/A   Clear
4:20 AM 51.8 °F 46.4 °F 82% 30.01 in - SSW 3.5 mph - N/A   Clear
4:50 AM 50.0 °F 46.4 °F 87% 30.01 in - Variable 1.2 mph - N/A   Clear
5:20 AM 51.8 °F 48.2 °F 88% 30.01 in - SW 9.2 mph - N/A   Clear
5:50 AM 51.8 °F 48.2 °F 88% 30.01 in - WSW 10.4 mph - N/A   Clear
6:20 AM 53.6 °F 48.2 °F 82% 30.01 in - SW 11.5 mph - N/A   Clear
6:50 AM 50.0 °F 46.4 °F 87% 30.01 in - WSW 4.6 mph - N/A   Clear
7:20 AM 53.6 °F 48.2 °F 82% 30.01 in - WSW 8.1 mph - N/A   Clear
7:50 AM 55.4 °F 50.0 °F 82% 30.04 in - WSW 10.4 mph - N/A   Clear
8:20 AM 57.2 °F 50.0 °F 77% 30.04 in - WSW 10.4 mph - N/A   Clear
8:50 AM 57.2 °F 50.0 °F 77% 30.04 in - WSW 10.4 mph - N/A   Clear
9:20 AM 60.8 °F 50.0 °F 68% 30.01 in - SW 18.4 mph - N/A   Clear
9:50 AM 62.6 °F 50.0 °F 63% 30.01 in - SW 16.1 mph - N/A   Clear
10:20 AM 64.4 °F 50.0 °F 59% 30.01 in - SW 13.8 mph - N/A   Clear
10:50 AM 66.2 °F 50.0 °F 56% 30.01 in - SW 10.4 mph - N/A   Clear
11:20 AM 68.0 °F 50.0 °F 52% 30.01 in - SW 6.9 mph - N/A   Clear
11:50 AM 69.8 °F 48.2 °F 46% 30.01 in - South 4.6 mph - N/A   Clear
12:20 PM 71.6 °F 46.4 °F 41% 30.01 in - Variable 3.5 mph - N/A   Clear
12:50 PM 69.8 °F 53.6 °F 56% 30.01 in - East 9.2 mph - N/A   Clear
1:20 PM 68.0 °F 51.8 °F 56% 30.01 in - East 11.5 mph - N/A   Clear
1:50 PM 69.8 °F 53.6 °F 56% 30.01 in - East 10.4 mph - N/A   Clear
2:20 PM 69.8 °F 53.6 °F 56% 30.01 in - ENE 10.4 mph - N/A   Clear
2:50 PM 69.8 °F 55.4 °F 60% 30.01 in - ENE 9.2 mph - N/A   Clear
3:20 PM 69.8 °F 55.4 °F 60% 30.01 in - ENE 9.2 mph - N/A   Clear
3:50 PM 68.0 °F 53.6 °F 60% 30.01 in - ENE 10.4 mph - N/A   Clear
4:20 PM 66.2 °F 53.6 °F 64% 29.98 in - NE 11.5 mph - N/A   Clear
4:50 PM 64.4 °F 51.8 °F 64% 29.98 in - NE 11.5 mph - N/A   Clear
5:20 PM 66.2 °F 53.6 °F 64% 29.98 in - ENE 9.2 mph - N/A   Clear
5:50 PM 64.4 °F 53.6 °F 68% 29.98 in - East 6.9 mph - N/A   Clear
6:20 PM 64.4 °F 55.4 °F 73% 29.98 in - East 8.1 mph - N/A   Clear
6:50 PM 60.8 °F 55.4 °F 82% 29.98 in - East 6.9 mph - N/A   Clear
7:20 PM 59.0 °F 53.6 °F 82% 29.98 in - ENE 5.8 mph - N/A   Clear
7:50 PM 59.0 °F 53.6 °F 82% 29.98 in - East 5.8 mph - N/A   Clear
8:20 PM 57.2 °F 51.8 °F 82% 29.98 in - East 3.5 mph - N/A   Clear
8:50 PM 55.4 °F 51.8 °F 88% 29.98 in - Calm Calm - N/A   Clear
9:20 PM 55.4 °F 51.8 °F 88% 29.98 in - Variable 2.3 mph - N/A   Clear
9:50 PM 55.4 °F 51.8 °F 88% 29.98 in - Variable 1.2 mph - N/A   Clear
10:20 PM 55.4 °F 53.6 °F 94% 29.98 in - Variable 1.2 mph - N/A   Clear
10:50 PM 55.4 °F 53.6 °F 94% 29.98 in - SSW 4.6 mph - N/A   Clear
11:20 PM 55.4 °F 53.6 °F 94% 29.95 in - Variable 2.3 mph - N/A   Clear
11:50 PM 55.4 °F 53.6 °F 94% 29.95 in - Calm Calm - N/A   Clear